Location: ??? ???
(30.7367°N, 60.5206°E)
Time: 13:35:16
(UTC+00:00)

Daily predictions for brighter satellites

Satellite Brightness Start Highest point End
(mag) Time Altitude Azimuth Time Altitude Azimuth Time Altitude Azimuth
Cosmos 1470 Rocket 4.1 14:10:00 10° SSE 14:13:56 35° E 14:17:53 10° NNE
Okean-O 2.7 14:10:25 10° SSE 14:14:50 85° WSW 14:19:17 10° NNW
STARLINK-1050 4.3 14:11:24 10° SSW 14:15:12 37° SE 14:19:01 10° ENE
STARLINK-1055 4.1 14:16:15 10° SSW 14:20:09 41° SE 14:24:02 10° ENE
Cosmos 2346 Rocket 4.5 14:14:08 10° N 14:20:22 79° E 14:26:29 10° S
STARLINK-1022 4.0 14:21:10 10° SSW 14:25:07 47° SE 14:29:05 10° NE
Cosmos 1939 Rocket 3.3 14:21:40 10° SE 14:25:30 40° ENE 14:29:24 10° N
COSMO-SKYMED 1 4.0 14:23:36 10° N 14:27:42 43° WNW 14:31:47 10° SW
CZ-4 R/B 1.4 14:23:59 10° SSE 14:28:10 74° ENE 14:32:21 10° N
Cosmos 1862 Rocket 4.1 14:24:36 10° NNE 14:28:35 35° E 14:32:35 10° SSE
STARLINK-1042 3.8 14:26:03 10° SSW 14:30:04 53° SE 14:34:06 10° NE
Cosmos 1707 Rocket 3.7 14:26:44 10° N 14:31:11 82° W 14:35:38 10° S
ADEOS Rocket 3.6 14:24:09 10° NNE 14:31:55 67° E 14:39:19 10° S
Skynet4D Del rocket 4.3 14:27:02 10° WSW 14:32:58 57° S 14:39:05 13° E
Cosmos 1340 2.6 14:30:22 10° S 14:34:04 67° E 14:37:48 10° NNE
STARLINK-1056 3.7 14:30:58 10° SSW 14:35:02 60° SE 14:39:02 10° NE
Cosmos 1656 Rocket 3.6 14:33:49 10° S 14:39:13 68° ESE 14:44:44 10° NNE
GPS 2-04 Rocket1 2.9 14:35:18 10° WSW 14:39:30 71° NNW 14:42:47 16° ENE
STARLINK-1054 3.6 14:35:52 10° SSW 14:39:58 69° SE 14:43:47 12° NE
STARLINK-1062 3.5 14:40:51 10° SW 14:44:57 78° SE 14:48:36 13° NE
Cosmos 1777 Rocket 3.9 14:43:18 10° NNW 14:48:35 72° ENE 14:53:48 10° SSE
STARLINK-1053 3.5 14:45:48 10° SW 14:49:55 87° SE 14:53:21 15° NE
Cosmos 2369 Rocket 3.7 14:46:03 10° SW 14:51:15 38° WNW 14:56:32 10° N
Haruka 3.6 14:50:50 10° W 14:54:28 62° SSW 15:02:22 14° ESE
STARLINK-1061 3.6 14:50:45 10° SW 14:54:53 83° NW 14:58:08 16° NE
Cosmos 2285 Rocket 4.2 14:51:19 10° N 14:57:26 47° ENE 15:03:33 10° SE
YAOGAN 1 3.2 14:55:00 10° S 14:59:15 60° W 15:03:31 10° NNW
STARLINK-1067 3.7 14:55:45 10° SW 14:59:51 74° NW 15:02:54 18° NE
HJ-1C 3.5 14:57:36 10° SSE 15:00:46 47° ENE 15:03:57 10° N
Cosmos 1763 Rocket 3.9 14:57:21 10° SSE 15:02:05 38° E 15:06:35 12° NE
Cosmos 1602 4.3 14:59:41 10° SSE 15:03:14 34° E 15:04:07 30° ENE
BREEZE-M DEB (TANK) 4.1 14:49:03 10° NW 15:04:36 70° SW 15:08:25 12° SSE
STARLINK-1058 3.9 15:00:43 10° SW 15:04:48 66° NW 15:07:41 19° NNE
CZ-2D R/B 4.2 15:05:32 10° S 15:09:17 50° W 15:13:04 10° NNW
STARLINK-1043 4.1 15:05:45 10° SW 15:09:49 58° NW 15:12:29 20° NNE
Cosmos 1933 Rocket 4.1 15:07:32 10° SSW 15:11:54 60° W 15:16:16 10° N
SL-4 R/B 3.5 15:08:21 10° WNW 15:12:40 39° SW 15:16:44 10° SSE
STARLINK-1065 4.3 15:10:43 10° WSW 15:14:45 52° NW 15:17:12 22° NNE
ARGOS 3.7 15:16:14 33° ENE 15:16:31 34° ENE 15:21:20 10° N
Ariane Rocket 3.0 15:11:38 10° SSE 15:16:37 60° ENE 15:21:39 10° N
SJ-11-01 4.2 15:13:49 10° SSE 15:18:24 60° ENE 15:23:00 10° N
Hubble Space Telescope 0.9 15:15:08 10° WSW 15:19:14 63° S 15:20:02 50° SE
STARLINK-1063 4.5 15:15:47 10° WSW 15:19:46 46° NW 15:22:01 23° NNE
SL-27 R/B 4.4 15:17:48 10° NW 15:20:41 28° W 15:23:33 10° SSW
Meteor 2-11 Rocket 4.3 15:15:28 10° S 15:21:33 77° E 15:27:38 10° N
Cosmos 44 3.0 15:18:48 10° NNW 15:23:14 61° ENE 15:24:07 50° ESE
FALCON 9 R/B 3.3 15:04:08 10° WNW 15:25:24 79° SSW 15:28:43 32° ESE
ASTRO E2 4.1 15:25:22 10° SW 15:28:02 25° S 15:28:02 25° S
H-2A R/B 2.2 15:27:20 37° SE 15:29:07 54° ENE 15:34:23 10° N
MOS 1 4.2 15:27:01 22° SE 15:30:37 59° ENE 15:36:10 10° N
Lacrosse 5 1.8 15:33:28 10° SW 15:38:33 82° NW 15:39:56 49° NNE
Meteor 1-18 Rocket 4.2 15:34:04 10° N 15:39:55 65° E 15:41:35 45° SE
Cosmos 724 4.1 15:35:35 10° NNW 15:41:24 85° ENE 15:43:24 44° SSE
Meteor 1-14 Rocket 4.3 15:39:56 10° SSW 15:45:27 74° W 15:50:59 10° N
Intelsat 5-1 Rocket 4.1 15:51:38 10° WSW 15:57:25 58° S 16:01:11 42° ESE
CZ-2C R/B 3.2 15:56:55 72° SSE 15:57:33 86° ENE 16:03:21 10° N
CZ-2C R/B 4.1 15:58:35 65° W 15:58:35 65° W 16:02:59 10° SSW
USA 267 3.1 15:58:22 55° NE 15:59:59 88° SE 16:06:32 10° SW
Skynet4D Del rocket 4.5 16:19:08 10° W 16:24:43 57° SW 16:24:43 57° SW
Atlas Centaur 2 4.1 23:15:43 34° ESE 23:15:43 34° ESE 23:20:56 10° E
Cosmos 2369 Rocket 3.5 23:49:43 35° NE 23:50:43 37° ENE 23:55:57 10° SE
